Regional Weather Roundup
Issued by NWS

Home | Current Version | Previous Version | Text Only | Print | Product List | Glossary On
Versions: 1 2 3 4 5 6 7 8 9 10 11 12 13 14 15 16 17 18 19 20 21 22 23 24 25 26 27 28 29 30 31 32 33 34 35 36 37 38 39 40 41 42 43 44 45 46 47 48 49 50
000
ASUS43 KMPX 070801
RWRMN
WEATHER ROUNDUP FOR MINNESOTA
NATIONAL WEATHER SERVICE TWIN CITIES/CHANHASSEN MN
300 AM CDT TUE JUL 07 2015


NOTE: "FAIR" INDICATES FEW OR NO CLOUDS BELOW 12,000 FEET WITH NO
SIGNIFICANT WEATHER AND/OR OBSTRUCTIONS TO VISIBILITY. N/A MEANS
CURRENT SKY AND/OR WEATHER CONDITIONS ARE NOT AVAILABLE.

MNZ060>063-068>070-070900-
   Twin Cities Metro

CITY           SKY/WX    TMP DP  RH WIND       PRES   REMARKS
TWIN CITIES    CLEAR     56  49  77 NW8       30.08R
ST PAUL        CLEAR     55  48  77 NW8       30.08R
CRYSTAL        CLEAR     55  49  80 NW6       30.08R
BLAINE         CLEAR     54  52  94 NW3       30.08R
LAKEVILLE      CLEAR     54  48  82 NW7       30.08R
EDEN PRAIRIE   CLEAR     56  48  74 N8        30.07R
SOUTH ST PAUL  CLEAR     56  47  71 N6        30.08R
LAKE ELMO      FAIR      52  50  93 CALM      30.08R
$$
MNZ001>005-007-008-013>017-022>024-027-028-070900-
   Northwest Minnesota

CITY           SKY/WX    TMP DP  RH WIND       PRES   REMARKS
BEMIDJI        CLEAR     45  44  96 W5        30.14S
HALLOCK        CLEAR     45  45 100 CALM      30.15S
ROSEAU         CLEAR     48  45  87 W6        30.14S
WARROAD        CLEAR     46  43  87 W3        30.14F
THIEF RVR FALL CLEAR     48  45  87 CALM      30.16S
CROOKSTON      CLEAR     46  46 100 NW3       30.18S
FOSSTON        CLEAR     43  39  87 CALM      30.16S
DETROIT LAKES  CLEAR     48  45  87 NW3       30.17S
MOORHEAD       CLEAR     46  43  87 CALM      30.18S
PARK RAPIDS    CLEAR     49  45  86 NW3       30.14R
MAHNOMEN       FAIR      46  44  93 CALM      30.16S
$$
MNZ006-009>011-018-025>026-070900-
   North Central Minnesota

CITY           SKY/WX    TMP DP  RH WIND       PRES   REMARKS
BAUDETTE       MOCLDY    47  43  86 W6        30.12R
FLAG ISLAND    CLEAR     52  45  76 W10       30.11S
INTL FALLS     CLEAR     45  44  97 CALM      30.09S
WASKISH        CLOUDY    55  48  76 NW5       30.12F
BIG FORK       CLEAR     45  43  93 CALM      30.12S
LONGVILLE      CLEAR     50  45  81 CALM      30.12R
GRAND RAPIDS   CLEAR     48  43  81 N7        30.11R
CRANE LAKE     MOCLDY    50  46  87 CALM      30.10S
COOK           PTCLDY    46  45  93 CALM      30.09S
WALKER         FAIR      46  45  97 CALM      30.13R
$$
MNZ012-019>021-037-070900-
   Northeast Minnesota

CITY           SKY/WX    TMP DP  RH WIND       PRES   REMARKS
DULUTH         CLOUDY    55  42  61 N6        30.07R
ELY            CLOUDY    52  45  76 NW5       30.06S
HIBBING        CLEAR     46  42  86 NW5       30.09R
DULUTH HARBOR    N/A     59  46  63 N10       30.07R
TWO HARBORS    CLOUDY    55  46  71 CALM      30.05R
SILVER BAY     CLOUDY    54  46  76 CALM      30.04R
GRAND MARAIS     N/A     51  48  89 CALM      30.02R
G MARAIS ARPRT CLOUDY    48  41  76 NW8       30.03R
$$
MNZ029>031-032-039>041-046>048-054>057-064-070900-
   West Central Minnesota

CITY           SKY/WX    TMP DP  RH WIND       PRES   REMARKS
FERGUS FALLS   CLEAR     48  45  87 N7        30.17S
WHEATON        CLEAR     48  45  87 NW5       30.19R
MORRIS         CLEAR     50  46  87 NW7       30.15R
ALEXANDRIA     CLEAR     53  46  77 N8        30.15S
ELBOW LAKE     FAIR      52  47  86 N6        30.15S
WADENA         PTCLDY    46  45  93 NW7       30.14S
GLENWOOD       CLEAR     48  45  87 NW5       30.15R
APPLETON       CLEAR     50  46  87 NW6       30.15R
BENSON         CLEAR     48  46  93 N3        30.15R
ORTONVILLE     CLEAR     50  45  81 N6        30.16S
MADISON        CLEAR     52  48  87 NW7       30.15S
WILLMAR        FAIR      52  46  82 NW5       30.15R
$$
MNZ033>034-036-042>043-049>051-058-059-070900-
   Central Minnesota

CITY           SKY/WX    TMP DP  RH WIND       PRES   REMARKS
ST CLOUD       CLEAR     51  47  86 NW5       30.11R
SAUK CENTRE    FAIR      50  45  84 NW6       30.13S
PAYNESVILLE    CLEAR     47  45  93 W5        30.13R
AITKIN         CLEAR     45  39  81 CALM      30.10R
PINE RIVER     CLEAR     52  46  82 NW3       30.15S
BRAINERD       CLEAR     54  44  69 N6        30.12R
STAPLES        CLEAR     48  45  87 NW7       30.13S
LONG PRAIRIE   FAIR      48  43  81 NW3       30.14R
LITTLE FALLS   CLEAR     50  45  81 NW3       30.11S
LITCHFIELD     CLEAR     54  48  82 NW5       30.13R
BUFFALO        CLEAR     53  47  78 NW6       30.11R
MAPLE LAKE     CLEAR     53  49  86 NW6       30.11R
$$
MNZ037-044-045-052-053-070900-
   East Central Minnesota

CITY           SKY/WX    TMP DP  RH WIND       PRES   REMARKS
PRINCETON      CLEAR     52  48  87 CALM      30.10R
MORA           CLEAR     50  43  76 CALM      30.10S
CAMBRIDGE      CLEAR     52  43  71 CALM      30.07R
MOOSE LAKE     CLOUDY    54  43  66 CALM      30.07R
HINCKLEY       CLOUDY    52  46  82 NW6       30.08S
CLOQUET        CLOUDY    54  43  66 NW5       30.08R
MCGREGOR       CLEAR     48  43  81 NW3       30.10R
$$
MNZ071>073-080-081-089-090-097-098-070900-
   Southwest Minnesota

CITY           SKY/WX    TMP DP  RH WIND       PRES   REMARKS
GRANITE FALLS  CLEAR     49  47  93 NW5       30.16R
CANBY          CLEAR     51  48  90 NW6       30.17R
MARSHALL       CLEAR     52  45  76 N7        30.13S
REDWOOD FALLS  CLEAR     53  48  83 N6        30.12R
OLIVIA         CLEAR     46  43  87 NW3       30.13R
PIPESTONE      CLEAR     52  48  87 CALM      30.15R
WINDOM         CLEAR     50  46  87 NW7       30.12F
WORTHINGTON    CLEAR     48  45  87 NW7       30.14R
JACKSON        CLEAR     50  48  93 NW7       30.13R
TRACY          CLEAR     52  50  93 NW6       30.14S
SLAYTON        CLEAR     50  49  97 CALM      30.15S
$$
MNZ065>067-074>077-082>085-091>093-070900-
   South Central Minnesota

CITY           SKY/WX    TMP DP  RH WIND       PRES   REMARKS
MANKATO        CLEAR     54  46  76 NW8       30.09S
NEW ULM        CLEAR     52  48  87 NW8       30.11S
ST JAMES       CLEAR     52  48  87 NW6       30.12S
FAIRMONT       CLEAR     54  45  71 N8        30.10S
GLENCOE        CLEAR     53  49  88 NW6       30.10R
FARIBAULT      CLEAR     54  50  87 NW6       30.08R
OWATONNA       CLEAR     52  48  87 NW5       30.08R
WASECA         CLEAR     52  48  87 NW7       30.09S
ALBERT LEA     CLEAR     55  50  82 N9        30.06F
$$
MNZ078>079-086>088-094>096-070900-
   Southeast Minnesota

CITY           SKY/WX    TMP DP  RH WIND       PRES   REMARKS
ROCHESTER      CLEAR     54  49  83 N10       30.05R
RED WING       MOCLDY    57  48  72 CALM      30.05R
DODGE CENTER   CLEAR     54  48  82 N9        30.05F
WINONA         CLOUDY    59  52  77 NW7       30.02R
AUSTIN         CLEAR     55  48  76 N8        30.05S
PRESTON        PTCLDY    55  49  81 N9        30.03S
$$
ABBREVIATIONS USED IN REMARKS
   TC - TEMPERATURES IN CELSIUS
  WCI - WIND CHILL INDEX
   HX - HEAT INDEX
  VSB - VISIBILITY
$$


USA.gov is the U.S. government's official web portal to all federal, state and local government web resources and services.